Location: Boiro
(42.6475°N, 8.8834°W)
Time: 12:53:55
(UTC+01:00)

Envisat - Pass Details

Date: 30 October 2021
Orbit: 764 x 766 km, 98.2° (Epoch: 07 December)

Event Time Altitude Azimuth Distance (km) Brightness Sun altitude
Rises 07:35:00 0° 14° (NNE) 3,241 6.4 -17.4°
Reaches altitude 10° 07:37:20 10° 17° (NNE) 2,311 5.6 -17.0°
Maximum altitude 07:42:25 73° 102° (ESE) 801 3.2 -16.0°
Drops below altitude 10° 07:47:28 10° 187° (S) 2,293 5.4 -15.1°
Sets 07:49:46 0° 190° (S) 3,214 6.2 -14.7°
